This is the latest recevied weather packets stored in our database for station/object KJ6HT. If no packets are shown the sender has not sent any weather packets the latest 10 day(s).
| Time | Temp. | Humidity | Pressure | Rain* | Wind** | Luminosity | Snow |
|---|---|---|---|---|---|---|---|
| 1788555638 | 29.44° C | 42% | 1010.7 hPa | 0 mm | - | - | - |
| 1788554737 | 29.44° C | 43% | 1011 hPa | 0 mm | - | - | - |
| 1788553838 | 29.44° C | 44% | 1011 hPa | 0 mm | - | - | - |
| 1788552936 | 30° C | 43% | 1011.1 hPa | 0 mm | - | - | - |
| 1788552043 | 28.33° C | 45% | 1011.2 hPa | 0 mm | - | - | - |
| 1788551135 | 28.33° C | 45% | 1011.4 hPa | 0 mm | - | - | - |
| 1788550234 | 26.67° C | 48% | 1011.7 hPa | 0 mm | - | - | - |
| 1788549333 | 26.67° C | 50% | 1012 hPa | 0 mm | - | - | - |
| 1788548424 | 26.67° C | 51% | 1012.2 hPa | 0 mm | - | - | - |
| 1788547523 | 26.11° C | 53% | 1012.3 hPa | 0 mm | - | - | - |
| 1788546621 | 26.11° C | 55% | 1012.4 hPa | 0 mm | - | - | - |
| 1788545719 | 25.56° C | 58% | 1012.5 hPa | 0 mm | - | - | - |
| 1788544820 | 25° C | 58% | 1012.5 hPa | 0 mm | - | - | - |
| 1788543915 | 25° C | 60% | 1012.7 hPa | 0 mm | - | - | - |
| 1788543013 | 23.89° C | 64% | 1012.7 hPa | 0 mm | - | - | - |
| 1788542113 | 23.33° C | 65% | 1012.6 hPa | 0 mm | - | - | - |
| 1788541208 | 23.33° C | 68% | 1012.6 hPa | 0 mm | - | - | - |
| 1788540305 | 22.22° C | 71% | 1012.4 hPa | 0 mm | - | - | - |
| 1788539402 | 21.11° C | 74% | 1012.2 hPa | 0 mm | - | - | - |
| 1788538560 | 21.11° C | 75% | 1012.1 hPa | 0 mm | - | - | - |
| 1788537658 | 20.56° C | 77% | 1012.1 hPa | 0 mm | - | - | - |
| 1788536757 | 20.56° C | 78% | 1012.2 hPa | 0 mm | - | - | - |
| 1788535868 | 20° C | 82% | 1012.1 hPa | 0 mm | - | - | - |
| 1788534952 | 19.44° C | 83% | 1012.2 hPa | 0 mm | - | - | - |
| 1788534052 | 19.44° C | 81% | 1012.1 hPa | 0 mm | - | - | - |
* Rain latest hour (hover to see other rain measurements)
** Current wind speed in m/s (hover to see current wind gust speed)